Location: New York
(40.7127°N, 74.0060°W)
Time: 05:14:37
(UTC-04:00)

NOAA 18 - Pass Details

Date: 27 April 2024
Orbit: 837 x 858 km, 98.9° (Epoch: 11 September)

Event Time Altitude Azimuth Distance (km) Brightness Sun altitude
Exits shadow 22:04:06 27° 77° (ENE) 1,590 6.3 -22.5°
Maximum altitude 22:04:44 28° 65° (ENE) 1,567 6.4 -22.5°
Drops below altitude 10° 22:09:21 10° 9° (N) 2,500 8.1 -23.2°
Sets 22:12:02 0° 358° (N) 3,437 9.1 -23.5°
